Location: Unspecified
(0.0000°N, 0.0000°E)
Time: 08:26:41
(UTC+00:00)

N. Korean satellite - Pass Details

Date: 27 November 2020
Orbit: 452 x 504 km, 97.2° (Epoch: 27 November)

Event Time Altitude Azimuth Distance (km) Brightness Sun altitude
Rises 04:30:58 0° 33° (NNE) 2,565 10.4 -17.8°
Reaches altitude 10° 04:33:20 10° 48° (NE) 1,693 9.6 -17.3°
Maximum altitude 04:36:15 22° 101° (ESE) 1,118 9.3 -16.6°
Drops below altitude 10° 04:39:10 10° 154° (SSE) 1,711 10.0 -15.9°
Sets 04:41:35 0° 169° (S) 2,600 10.7 -15.4°
